Regional Weather Roundup
Issued by NWS

Home | Current Version | Previous Version | Text Only | Print | Product List | Glossary On
Versions: 1 2 3 4 5 6 7 8 9 10 11 12 13 14 15 16 17 18 19 20 21 22 23 24 25 26 27 28 29 30 31 32 33 34 35 36 37 38 39 40 41 42 43 44 45 46 47 48 49 50
000
ASUS43 KMKX 171011
RWRWI

WISCONSIN REGIONAL WEATHER ROUNDUP
NATIONAL WEATHER SERVICE MILWAUKEE/SULLIVAN WI
500 AM CDT THU APR 17 2014

NOTE: "FAIR" INDICATES FEW OR NO CLOUDS BELOW 12,000 FEET WITH NO
SIGNIFICANT WEATHER AND/OR OBSTRUCTIONS TO VISIBILITY.

WIZ001-002-006>008-014>016-023>028-171100-
NORTHWEST WISCONSIN

CITY           SKY/WX    TMP DP  RH WIND       PRES   REMARKS
SUPERIOR ARPT  CLOUDY    30  29  95 NE10G21   30.13S WCI  21
ASHLAND        LGT SNOW  28  28 100 NE14      30.10R VSB 3/4 WCI  17
HAYWARD        LGT SNOW  29  26  89 N8        30.04R FOG     WCI  21
SIREN          MIX PCPN  29  28  94 NE12      30.07R WCI  20
RICE LAKE      CLOUDY    33  32  98 N8        30.02R FOG     WCI  25
LADYSMITH      LGT SNOW  34  33  97 E7        30.00S WCI  28
EAU CLAIRE     LGT RAIN  37  35  92 NE7       29.96R WCI  32
MENOMONIE      CLOUDY    36  36  99 N12       29.97R FOG     WCI  28
NEW RICHMOND   MIX PCPN  31  30  98 N12       30.03R WCI  21
OSCEOLA        CLOUDY    30  29  98 N10       30.07R WCI  21
$$

WIZ003>005-009-010-017-018-171100-
NORTH CENTRAL WISCONSIN

CITY           SKY/WX    TMP DP  RH WIND       PRES   REMARKS
WOODRUFF       SNOW      32  30  92 SE13G18   30.02S VSB 1/2 WCI  22
RHINELANDER    LGT SNOW  30  29  96 SE16      30.04S VSB 3/4 WCI  19
EAGLE RIVER    SNOW      30  30  99 SE10      30.04S VSB 1/2 WCI  21
LAND O LAKES   SNOW      30  29  96 SE10G18   30.06S VSB 1/2 WCI  21
PHILLIPS       LGT SNOW  31  31  96 E7        29.99F WCI  25
TOMAHAWK       LGT SNOW  32  31  94 CALM      30.02S
MEDFORD        LGT SNOW  32  32  98 E8        29.98S WCI  25
MERRILL        LGT SNOW  33  32  94 CALM      30.02R
$$

WIZ029-030-035-036-043>047-171100-
CENTRAL WISCONSIN

CITY           SKY/WX    TMP DP  RH WIND       PRES   REMARKS
WAUSAU         LGT SNOW  34  32  92 E10       29.99S FOG     WCI  26
MOSINEE        FLURRIES  34  32  93 E10       30.00S WCI  26
MARSHFIELD     LGT RAIN  36  32  85 E12       29.95F WCI  28
STEVENS POINT  CLOUDY    36  28  74 SE12G18   29.99F WCI  27
WAUPACA        CLOUDY    41  30  65 SE13G23   30.03S
WAUTOMA        CLOUDY    42  29  60 SE8       30.00F
WISC RAPIDS    LGT RAIN  40  29  64 SE12      29.97F WCI  33
CAMP DOUGLAS   CLOUDY    43  31  63 E8        29.92F
$$

WIZ011>013-019>022-031-037>040-048>050-171100-
NORTHEAST WISCONSIN

CITY           SKY/WX    TMP DP  RH WIND       PRES   REMARKS
ANTIGO         CLOUDY    32  31  98 SE21G30   30.02S FOG     WCI  19
STURGEON BAY   CLOUDY    36  27  69 SE15G21   30.16S WCI  26
GREEN BAY      CLOUDY    35  32  88 SE16      30.10F WCI  25
MANITOWOC      LGT RAIN  36  31  82 SE20G25   30.14F WCI  25
APPLETON       CLOUDY    36  32  87 SE22G30   30.05F WCI  24
CLINTONVILLE   CLOUDY    36  32  87 SE13G23   30.06S WCI  27
OSHKOSH        CLOUDY    39  28  64 SE20G26   30.03F WCI  29
$$

WIZ032>034-041-042-053>061-171100-
SOUTHWEST WISCONSIN

CITY           SKY/WX    TMP DP  RH WIND       PRES   REMARKS
LA CROSSE      CLOUDY    47  37  68 SW10      29.89R
SPARTA         CLOUDY    46  29  51 S12         N/A
VIROQUA        CLOUDY    43  37  78 SW15      29.90R
BOSCOBEL       CLOUDY    48  34  58 SW17G26   29.94R
PRAIRIE DU CHI CLOUDY    40  36  83 SW9G21    29.97R WCI  35
PLATTEVILLE    MOCLDY    42  31  63 S14       29.98R
$$

WIZ056-057-062-063-064-067-068-171100-
SOUTH CENTRAL WISCONSIN

CITY           SKY/WX    TMP DP  RH WIND       PRES   REMARKS
BARABOO/DELLS  CLOUDY    42  29  58 S15       29.95S
LONE ROCK      PTCLDY    44  30  57 S10G21    29.95S
WATERTOWN      CLOUDY    42  27  54 SE9       30.03F
MADISON        CLOUDY    45  28  51 S20G29    30.00S
MIDDLETON      PTSUNNY   43  28  54 S10G21    29.99R
MONROE         MOCLDY    42  30  62 S25       29.98F
JANESVILLE     CLOUDY    45  27  49 S18       30.02F
$$

WIZ051-052-058>065-066-070>072-171100-
SOUTHEAST WISCONSIN

CITY           SKY/WX    TMP DP  RH WIND       PRES   REMARKS
MILWAUKEE      CLOUDY    40  30  67 SE15      30.11F WCI  32
WAUKESHA       CLOUDY    37  28  70 SE12      30.08F WCI  30
MILWAUKEE/TIMM CLOUDY    37  28  70 SE9       30.09F WCI  31
RACINE         CLOUDY    39  30  70 SE17G29   30.12F WCI  30
BURLINGTON     CLOUDY    41  26  55 S12       30.07F
KENOSHA        CLOUDY    40  31  70 SE15      30.09F WCI  32
FOND DU LAC    CLOUDY    39  29  67 SE21      30.04F WCI  29
SHEBOYGAN      CLOUDY    37  29  72 SE15G23   30.12F WCI  28
WEST BEND      CLOUDY    36  28  75 SE14      30.08F WCI  27
JUNEAU         CLOUDY    41  25  52 SE16G24   30.03F
$$

LSZ147-162-171100-
LAKE SUPERIOR

STATION/POSITION TIME  TEMP    WIND        PRES    WAVE
                       AIR SEA DIR/SP/G            HT/PER
                 (UTC) (F)     (DEG/KT/KT) (MB)    (FT/S)
DEVILS ISLAND    1000   30      60/ 29/ 35 1021.3F
PORT WING        0900   29      50/ 20/ 26 1019.6F
SAXON HARBOR     0900           50/ 12/ 13 1018.6F
$$

LMZ867-665-643>646-171100-
LAKE MICHIGAN

STATION/POSITION TIME  TEMP    WIND        PRES    WAVE
                       AIR SEA DIR/SP/G            HT/PER
                 (UTC) (F)     (DEG/KT/KT) (MB)    (FT/S)
NORTHPORT PIER   0900   35     120/ 17/ 20 1022.7F
SISTER BAY       0923   36     140/ 16/ 21   N/A
SHEBOYGAN LAKESH 1000   38     130/ 27/ 29 1020.3F
PORT WASHINGTON  0900   38     140/ 10/ 14 1021.0
MILWAUKEE LAKESH 0900   39     150/ 17/ 19   N/A
KENOSHA   LAKESH 1000   39     150/ 21/ 24   N/A
$$

TC  - TEMPERATURE IN CELSIUS
VSB - VISIBILITY IN STATUTE MILES
WCI - WIND CHILL INDEX
HX  - HEAT INDEX




USA.gov is the U.S. government's official web portal to all federal, state and local government web resources and services.